locationName,lineName,date,time,countIn,countOut
��Ƃ�̍L��,�C�ݕ���,2022/9/1,0:00,1,1
��Ƃ�̍L��,�C�ݕ���,2022/9/1,1:00,1,1
��Ƃ�̍L��,�C�ݕ���,2022/9/1,2:00,1,3
��Ƃ�̍L��,�C�ݕ���,2022/9/1,3:00,0,0
��Ƃ�̍L��,�C�ݕ���,2022/9/1,4:00,1,1
��Ƃ�̍L��,�C�ݕ���,2022/9/1,5:00,5,0
��Ƃ�̍L��,�C�ݕ���,2022/9/1,6:00,5,2
��Ƃ�̍L��,�C�ݕ���,2022/9/1,7:00,10,7
��Ƃ�̍L��,�C�ݕ���,2022/9/1,8:00,16,21
��Ƃ�̍L��,�C�ݕ���,2022/9/1,9:00,36,25
��Ƃ�̍L��,�C�ݕ���,2022/9/1,10:00,42,24
��Ƃ�̍L��,�C�ݕ���,2022/9/1,11:00,51,31
��Ƃ�̍L��,�C�ݕ���,2022/9/1,12:00,63,24
��Ƃ�̍L��,�C�ݕ���,2022/9/1,13:00,46,27
��Ƃ�̍L��,�C�ݕ���,2022/9/1,14:00,55,21
��Ƃ�̍L��,�C�ݕ���,2022/9/1,15:00,44,37
��Ƃ�̍L��,�C�ݕ���,2022/9/1,16:00,32,30
��Ƃ�̍L��,�C�ݕ���,2022/9/1,17:00,40,23
��Ƃ�̍L��,�C�ݕ���,2022/9/1,18:00,30,23
��Ƃ�̍L��,�C�ݕ���,2022/9/1,19:00,21,7
��Ƃ�̍L��,�C�ݕ���,2022/9/1,20:00,11,10
��Ƃ�̍L��,�C�ݕ���,2022/9/1,21:00,11,13
��Ƃ�̍L��,�C�ݕ���,2022/9/1,22:00,8,5
��Ƃ�̍L��,�C�ݕ���,2022/9/1,23:00,3,1
��Ƃ�̍L��,�C�ݕ���,2022/9/2,0:00,1,1
��Ƃ�̍L��,�C�ݕ���,2022/9/2,1:00,0,0
��Ƃ�̍L��,�C�ݕ���,2022/9/2,2:00,3,0
��Ƃ�̍L��,�C�ݕ���,2022/9/2,3:00,1,0
��Ƃ�̍L��,�C�ݕ���,2022/9/2,4:00,1,1
��Ƃ�̍L��,�C�ݕ���,2022/9/2,5:00,1,2
��Ƃ�̍L��,�C�ݕ���,2022/9/2,6:00,7,4
��Ƃ�̍L��,�C�ݕ���,2022/9/2,7:00,20,10
��Ƃ�̍L��,�C�ݕ���,2022/9/2,8:00,31,23
��Ƃ�̍L��,�C�ݕ���,2022/9/2,9:00,30,17
��Ƃ�̍L��,�C�ݕ���,2022/9/2,10:00,46,21
��Ƃ�̍L��,�C�ݕ���,2022/9/2,11:00,92,39
��Ƃ�̍L��,�C�ݕ���,2022/9/2,12:00,64,35
��Ƃ�̍L��,�C�ݕ���,2022/9/2,13:00,70,34
��Ƃ�̍L��,�C�ݕ���,2022/9/2,14:00,79,34
��Ƃ�̍L��,�C�ݕ���,2022/9/2,15:00,71,34
��Ƃ�̍L��,�C�ݕ���,2022/9/2,16:00,62,30
��Ƃ�̍L��,�C�ݕ���,2022/9/2,17:00,48,25
��Ƃ�̍L��,�C�ݕ���,2022/9/2,18:00,42,32
��Ƃ�̍L��,�C�ݕ���,2022/9/2,19:00,25,13
��Ƃ�̍L��,�C�ݕ���,2022/9/2,20:00,30,12
��Ƃ�̍L��,�C�ݕ���,2022/9/2,21:00,20,15
��Ƃ�̍L��,�C�ݕ���,2022/9/2,22:00,13,0
��Ƃ�̍L��,�C�ݕ���,2022/9/2,23:00,3,3
��Ƃ�̍L��,�C�ݕ���,2022/9/3,0:00,4,3
��Ƃ�̍L��,�C�ݕ���,2022/9/3,1:00,1,0
��Ƃ�̍L��,�C�ݕ���,2022/9/3,2:00,1,0
��Ƃ�̍L��,�C�ݕ���,2022/9/3,3:00,3,1
��Ƃ�̍L��,�C�ݕ���,2022/9/3,4:00,0,1
��Ƃ�̍L��,�C�ݕ���,2022/9/3,5:00,1,2
��Ƃ�̍L��,�C�ݕ���,2022/9/3,6:00,5,5
��Ƃ�̍L��,�C�ݕ���,2022/9/3,7:00,7,2
��Ƃ�̍L��,�C�ݕ���,2022/9/3,8:00,19,19
��Ƃ�̍L��,�C�ݕ���,2022/9/3,9:00,32,20
��Ƃ�̍L��,�C�ݕ���,2022/9/3,10:00,52,34
��Ƃ�̍L��,�C�ݕ���,2022/9/3,11:00,94,61
��Ƃ�̍L��,�C�ݕ���,2022/9/3,12:00,129,76
��Ƃ�̍L��,�C�ݕ���,2022/9/3,13:00,119,55
��Ƃ�̍L��,�C�ݕ���,2022/9/3,14:00,88,48
��Ƃ�̍L��,�C�ݕ���,2022/9/3,15:00,65,57
��Ƃ�̍L��,�C�ݕ���,2022/9/3,16:00,46,43
��Ƃ�̍L��,�C�ݕ���,2022/9/3,17:00,106,83
��Ƃ�̍L��,�C�ݕ���,2022/9/3,18:00,44,31
��Ƃ�̍L��,�C�ݕ���,2022/9/3,19:00,35,21
��Ƃ�̍L��,�C�ݕ���,2022/9/3,20:00,23,12
��Ƃ�̍L��,�C�ݕ���,2022/9/3,21:00,19,14
��Ƃ�̍L��,�C�ݕ���,2022/9/3,22:00,12,6
��Ƃ�̍L��,�C�ݕ���,2022/9/3,23:00,5,3
��Ƃ�̍L��,�C�ݕ���,2022/9/4,0:00,5,3
��Ƃ�̍L��,�C�ݕ���,2022/9/4,1:00,1,2
��Ƃ�̍L��,�C�ݕ���,2022/9/4,2:00,0,0
��Ƃ�̍L��,�C�ݕ���,2022/9/4,3:00,1,0
��Ƃ�̍L��,�C�ݕ���,2022/9/4,4:00,1,0
��Ƃ�̍L��,�C�ݕ���,2022/9/4,5:00,4,1
��Ƃ�̍L��,�C�ݕ���,2022/9/4,6:00,13,2
��Ƃ�̍L��,�C�ݕ���,2022/9/4,7:00,14,7
��Ƃ�̍L��,�C�ݕ���,2022/9/4,8:00,14,7
��Ƃ�̍L��,�C�ݕ���,2022/9/4,9:00,20,7
��Ƃ�̍L��,�C�ݕ���,2022/9/4,10:00,46,31
��Ƃ�̍L��,�C�ݕ���,2022/9/4,11:00,73,56
��Ƃ�̍L��,�C�ݕ���,2022/9/4,12:00,106,72
��Ƃ�̍L��,�C�ݕ���,2022/9/4,13:00,136,72
��Ƃ�̍L��,�C�ݕ���,2022/9/4,14:00,104,79
��Ƃ�̍L��,�C�ݕ���,2022/9/4,15:00,86,53
��Ƃ�̍L��,�C�ݕ���,2022/9/4,16:00,67,52
��Ƃ�̍L��,�C�ݕ���,2022/9/4,17:00,35,39
��Ƃ�̍L��,�C�ݕ���,2022/9/4,18:00,0,0
��Ƃ�̍L��,�C�ݕ���,2022/9/4,19:00,0,0
��Ƃ�̍L��,�C�ݕ���,2022/9/4,20:00,0,0
��Ƃ�̍L��,�C�ݕ���,2022/9/4,21:00,0,0
��Ƃ�̍L��,�C�ݕ���,2022/9/4,22:00,0,0
��Ƃ�̍L��,�C�ݕ���,2022/9/4,23:00,0,0
��Ƃ�̍L��,�C�ݕ���,2022/9/5,0:00,0,0
��Ƃ�̍L��,�C�ݕ���,2022/9/5,1:00,0,0
��Ƃ�̍L��,�C�ݕ���,2022/9/5,2:00,0,0
��Ƃ�̍L��,�C�ݕ���,2022/9/5,3:00,0,0
��Ƃ�̍L��,�C�ݕ���,2022/9/5,4:00,0,0
��Ƃ�̍L��,�C�ݕ���,2022/9/5,5:00,0,0
��Ƃ�̍L��,�C�ݕ���,2022/9/5,6:00,0,0
��Ƃ�̍L��,�C�ݕ���,2022/9/5,7:00,0,0
��Ƃ�̍L��,�C�ݕ���,2022/9/5,8:00,0,0
��Ƃ�̍L��,�C�ݕ���,2022/9/5,9:00,0,0
��Ƃ�̍L��,�C�ݕ���,2022/9/5,10:00,0,0
��Ƃ�̍L��,�C�ݕ���,2022/9/5,11:00,0,0
��Ƃ�̍L��,�C�ݕ���,2022/9/5,12:00,0,0
��Ƃ�̍L��,�C�ݕ���,2022/9/5,13:00,0,0
��Ƃ�̍L��,�C�ݕ���,2022/9/5,14:00,0,0
��Ƃ�̍L��,�C�ݕ���,2022/9/5,15:00,0,0
��Ƃ�̍L��,�C�ݕ���,2022/9/5,16:00,0,0
��Ƃ�̍L��,�C�ݕ���,2022/9/5,17:00,0,0
��Ƃ�̍L��,�C�ݕ���,2022/9/5,18:00,0,0
��Ƃ�̍L��,�C�ݕ���,2022/9/5,19:00,0,0
��Ƃ�̍L��,�C�ݕ���,2022/9/5,20:00,0,0
��Ƃ�̍L��,�C�ݕ���,2022/9/5,21:00,0,0
��Ƃ�̍L��,�C�ݕ���,2022/9/5,22:00,0,0
��Ƃ�̍L��,�C�ݕ���,2022/9/5,23:00,0,0
��Ƃ�̍L��,�C�ݕ���,2022/9/6,0:00,0,0
��Ƃ�̍L��,�C�ݕ���,2022/9/6,1:00,0,0
��Ƃ�̍L��,�C�ݕ���,2022/9/6,2:00,0,0
��Ƃ�̍L��,�C�ݕ���,2022/9/6,3:00,0,0
��Ƃ�̍L��,�C�ݕ���,2022/9/6,4:00,0,0
��Ƃ�̍L��,�C�ݕ���,2022/9/6,5:00,0,0
��Ƃ�̍L��,�C�ݕ���,2022/9/6,6:00,0,0
��Ƃ�̍L��,�C�ݕ���,2022/9/6,7:00,0,0
��Ƃ�̍L��,�C�ݕ���,2022/9/6,8:00,0,0
��Ƃ�̍L��,�C�ݕ���,2022/9/6,9:00,0,0
��Ƃ�̍L��,�C�ݕ���,2022/9/6,10:00,0,0
��Ƃ�̍L��,�C�ݕ���,2022/9/6,11:00,0,0
��Ƃ�̍L��,�C�ݕ���,2022/9/6,12:00,0,0
��Ƃ�̍L��,�C�ݕ���,2022/9/6,13:00,0,0
��Ƃ�̍L��,�C�ݕ���,2022/9/6,14:00,0,0
��Ƃ�̍L��,�C�ݕ���,2022/9/6,15:00,0,0
��Ƃ�̍L��,�C�ݕ���,2022/9/6,16:00,0,0
��Ƃ�̍L��,�C�ݕ���,2022/9/6,17:00,0,0
��Ƃ�̍L��,�C�ݕ���,2022/9/6,18:00,0,0
��Ƃ�̍L��,�C�ݕ���,2022/9/6,19:00,0,0
��Ƃ�̍L��,�C�ݕ���,2022/9/6,20:00,0,0
��Ƃ�̍L��,�C�ݕ���,2022/9/6,21:00,0,0
��Ƃ�̍L��,�C�ݕ���,2022/9/6,22:00,0,0
��Ƃ�̍L��,�C�ݕ���,2022/9/6,23:00,0,0
��Ƃ�̍L��,�C�ݕ���,2022/9/7,0:00,0,0
��Ƃ�̍L��,�C�ݕ���,2022/9/7,1:00,0,0
��Ƃ�̍L��,�C�ݕ���,2022/9/7,2:00,0,0
��Ƃ�̍L��,�C�ݕ���,2022/9/7,3:00,0,0
��Ƃ�̍L��,�C�ݕ���,2022/9/7,4:00,0,0
��Ƃ�̍L��,�C�ݕ���,2022/9/7,5:00,0,0
��Ƃ�̍L��,�C�ݕ���,2022/9/7,6:00,0,0
��Ƃ�̍L��,�C�ݕ���,2022/9/7,7:00,0,0
��Ƃ�̍L��,�C�ݕ���,2022/9/7,8:00,0,0
��Ƃ�̍L��,�C�ݕ���,2022/9/7,9:00,0,0
��Ƃ�̍L��,�C�ݕ���,2022/9/7,10:00,0,0
��Ƃ�̍L��,�C�ݕ���,2022/9/7,11:00,0,0
��Ƃ�̍L��,�C�ݕ���,2022/9/7,12:00,0,0
��Ƃ�̍L��,�C�ݕ���,2022/9/7,13:00,0,0
��Ƃ�̍L��,�C�ݕ���,2022/9/7,14:00,0,0
��Ƃ�̍L��,�C�ݕ���,2022/9/7,15:00,0,0
��Ƃ�̍L��,�C�ݕ���,2022/9/7,16:00,0,0
��Ƃ�̍L��,�C�ݕ���,2022/9/7,17:00,0,0
��Ƃ�̍L��,�C�ݕ���,2022/9/7,18:00,0,0
��Ƃ�̍L��,�C�ݕ���,2022/9/7,19:00,0,0
��Ƃ�̍L��,�C�ݕ���,2022/9/7,20:00,0,0
��Ƃ�̍L��,�C�ݕ���,2022/9/7,21:00,0,0
��Ƃ�̍L��,�C�ݕ���,2022/9/7,22:00,0,0
��Ƃ�̍L��,�C�ݕ���,2022/9/7,23:00,0,0
��Ƃ�̍L��,�C�ݕ���,2022/9/8,0:00,0,0
��Ƃ�̍L��,�C�ݕ���,2022/9/8,1:00,0,0
��Ƃ�̍L��,�C�ݕ���,2022/9/8,2:00,0,0
��Ƃ�̍L��,�C�ݕ���,2022/9/8,3:00,0,0
��Ƃ�̍L��,�C�ݕ���,2022/9/8,4:00,0,0
��Ƃ�̍L��,�C�ݕ���,2022/9/8,5:00,0,0
��Ƃ�̍L��,�C�ݕ���,2022/9/8,6:00,0,0
��Ƃ�̍L��,�C�ݕ���,2022/9/8,7:00,0,0
��Ƃ�̍L��,�C�ݕ���,2022/9/8,8:00,0,0
��Ƃ�̍L��,�C�ݕ���,2022/9/8,9:00,0,0
��Ƃ�̍L��,�C�ݕ���,2022/9/8,10:00,0,0
��Ƃ�̍L��,�C�ݕ���,2022/9/8,11:00,0,0
��Ƃ�̍L��,�C�ݕ���,2022/9/8,12:00,0,0
��Ƃ�̍L��,�C�ݕ���,2022/9/8,13:00,0,0
��Ƃ�̍L��,�C�ݕ���,2022/9/8,14:00,0,0
��Ƃ�̍L��,�C�ݕ���,2022/9/8,15:00,0,0
��Ƃ�̍L��,�C�ݕ���,2022/9/8,16:00,0,0
��Ƃ�̍L��,�C�ݕ���,2022/9/8,17:00,0,0
��Ƃ�̍L��,�C�ݕ���,2022/9/8,18:00,0,0
��Ƃ�̍L��,�C�ݕ���,2022/9/8,19:00,0,0
��Ƃ�̍L��,�C�ݕ���,2022/9/8,20:00,0,0
��Ƃ�̍L��,�C�ݕ���,2022/9/8,21:00,0,0
��Ƃ�̍L��,�C�ݕ���,2022/9/8,22:00,0,0
��Ƃ�̍L��,�C�ݕ���,2022/9/8,23:00,0,0
��Ƃ�̍L��,�C�ݕ���,2022/9/9,0:00,0,0
��Ƃ�̍L��,�C�ݕ���,2022/9/9,1:00,0,0
��Ƃ�̍L��,�C�ݕ���,2022/9/9,2:00,0,0
��Ƃ�̍L��,�C�ݕ���,2022/9/9,3:00,0,0
��Ƃ�̍L��,�C�ݕ���,2022/9/9,4:00,0,0
��Ƃ�̍L��,�C�ݕ���,2022/9/9,5:00,0,0
��Ƃ�̍L��,�C�ݕ���,2022/9/9,6:00,0,0
��Ƃ�̍L��,�C�ݕ���,2022/9/9,7:00,0,0
��Ƃ�̍L��,�C�ݕ���,2022/9/9,8:00,0,0
��Ƃ�̍L��,�C�ݕ���,2022/9/9,9:00,0,0
��Ƃ�̍L��,�C�ݕ���,2022/9/9,10:00,0,0
��Ƃ�̍L��,�C�ݕ���,2022/9/9,11:00,0,0
��Ƃ�̍L��,�C�ݕ���,2022/9/9,12:00,0,0
��Ƃ�̍L��,�C�ݕ���,2022/9/9,13:00,0,0
��Ƃ�̍L��,�C�ݕ���,2022/9/9,14:00,0,0
��Ƃ�̍L��,�C�ݕ���,2022/9/9,15:00,0,0
��Ƃ�̍L��,�C�ݕ���,2022/9/9,16:00,0,0
��Ƃ�̍L��,�C�ݕ���,2022/9/9,17:00,0,0
��Ƃ�̍L��,�C�ݕ���,2022/9/9,18:00,0,0
��Ƃ�̍L��,�C�ݕ���,2022/9/9,19:00,0,0
��Ƃ�̍L��,�C�ݕ���,2022/9/9,20:00,0,0
��Ƃ�̍L��,�C�ݕ���,2022/9/9,21:00,0,0
��Ƃ�̍L��,�C�ݕ���,2022/9/9,22:00,0,0
��Ƃ�̍L��,�C�ݕ���,2022/9/9,23:00,0,0
��Ƃ�̍L��,�C�ݕ���,2022/9/10,0:00,0,0
��Ƃ�̍L��,�C�ݕ���,2022/9/10,1:00,0,0
��Ƃ�̍L��,�C�ݕ���,2022/9/10,2:00,0,0
��Ƃ�̍L��,�C�ݕ���,2022/9/10,3:00,0,0
��Ƃ�̍L��,�C�ݕ���,2022/9/10,4:00,0,0
��Ƃ�̍L��,�C�ݕ���,2022/9/10,5:00,0,0
��Ƃ�̍L��,�C�ݕ���,2022/9/10,6:00,0,0
��Ƃ�̍L��,�C�ݕ���,2022/9/10,7:00,0,0
��Ƃ�̍L��,�C�ݕ���,2022/9/10,8:00,0,0
��Ƃ�̍L��,�C�ݕ���,2022/9/10,9:00,0,0
��Ƃ�̍L��,�C�ݕ���,2022/9/10,10:00,0,0
��Ƃ�̍L��,�C�ݕ���,2022/9/10,11:00,0,0
��Ƃ�̍L��,�C�ݕ���,2022/9/10,12:00,0,0
��Ƃ�̍L��,�C�ݕ���,2022/9/10,13:00,0,0
��Ƃ�̍L��,�C�ݕ���,2022/9/10,14:00,0,0
��Ƃ�̍L��,�C�ݕ���,2022/9/10,15:00,0,0
��Ƃ�̍L��,�C�ݕ���,2022/9/10,16:00,0,0
��Ƃ�̍L��,�C�ݕ���,2022/9/10,17:00,0,0
��Ƃ�̍L��,�C�ݕ���,2022/9/10,18:00,0,0
��Ƃ�̍L��,�C�ݕ���,2022/9/10,19:00,0,0
��Ƃ�̍L��,�C�ݕ���,2022/9/10,20:00,0,0
��Ƃ�̍L��,�C�ݕ���,2022/9/10,21:00,0,0
��Ƃ�̍L��,�C�ݕ���,2022/9/10,22:00,0,0
��Ƃ�̍L��,�C�ݕ���,2022/9/10,23:00,0,0
��Ƃ�̍L��,�C�ݕ���,2022/9/11,0:00,0,0
��Ƃ�̍L��,�C�ݕ���,2022/9/11,1:00,0,0
��Ƃ�̍L��,�C�ݕ���,2022/9/11,2:00,0,0
��Ƃ�̍L��,�C�ݕ���,2022/9/11,3:00,0,0
��Ƃ�̍L��,�C�ݕ���,2022/9/11,4:00,0,0
��Ƃ�̍L��,�C�ݕ���,2022/9/11,5:00,0,0
��Ƃ�̍L��,�C�ݕ���,2022/9/11,6:00,0,0
��Ƃ�̍L��,�C�ݕ���,2022/9/11,7:00,0,0
��Ƃ�̍L��,�C�ݕ���,2022/9/11,8:00,0,0
��Ƃ�̍L��,�C�ݕ���,2022/9/11,9:00,0,0
��Ƃ�̍L��,�C�ݕ���,2022/9/11,10:00,0,0
��Ƃ�̍L��,�C�ݕ���,2022/9/11,11:00,0,0
��Ƃ�̍L��,�C�ݕ���,2022/9/11,12:00,0,0
��Ƃ�̍L��,�C�ݕ���,2022/9/11,13:00,0,0
��Ƃ�̍L��,�C�ݕ���,2022/9/11,14:00,0,0
��Ƃ�̍L��,�C�ݕ���,2022/9/11,15:00,0,0
��Ƃ�̍L��,�C�ݕ���,2022/9/11,16:00,0,0
��Ƃ�̍L��,�C�ݕ���,2022/9/11,17:00,0,0
��Ƃ�̍L��,�C�ݕ���,2022/9/11,18:00,0,0
��Ƃ�̍L��,�C�ݕ���,2022/9/11,19:00,0,0
��Ƃ�̍L��,�C�ݕ���,2022/9/11,20:00,0,0
��Ƃ�̍L��,�C�ݕ���,2022/9/11,21:00,0,0
��Ƃ�̍L��,�C�ݕ���,2022/9/11,22:00,0,0
��Ƃ�̍L��,�C�ݕ���,2022/9/11,23:00,0,0
��Ƃ�̍L��,�C�ݕ���,2022/9/12,0:00,0,0
��Ƃ�̍L��,�C�ݕ���,2022/9/12,1:00,0,0
��Ƃ�̍L��,�C�ݕ���,2022/9/12,2:00,0,0
��Ƃ�̍L��,�C�ݕ���,2022/9/12,3:00,0,0
��Ƃ�̍L��,�C�ݕ���,2022/9/12,4:00,0,0
��Ƃ�̍L��,�C�ݕ���,2022/9/12,5:00,0,0
��Ƃ�̍L��,�C�ݕ���,2022/9/12,6:00,0,0
��Ƃ�̍L��,�C�ݕ���,2022/9/12,7:00,0,0
��Ƃ�̍L��,�C�ݕ���,2022/9/12,8:00,0,0
��Ƃ�̍L��,�C�ݕ���,2022/9/12,9:00,0,0
��Ƃ�̍L��,�C�ݕ���,2022/9/12,10:00,0,0
��Ƃ�̍L��,�C�ݕ���,2022/9/12,11:00,18,15
��Ƃ�̍L��,�C�ݕ���,2022/9/12,12:00,97,42
��Ƃ�̍L��,�C�ݕ���,2022/9/12,13:00,106,57
��Ƃ�̍L��,�C�ݕ���,2022/9/12,14:00,93,39
��Ƃ�̍L��,�C�ݕ���,2022/9/12,15:00,86,55
��Ƃ�̍L��,�C�ݕ���,2022/9/12,16:00,78,37
��Ƃ�̍L��,�C�ݕ���,2022/9/12,17:00,59,30
��Ƃ�̍L��,�C�ݕ���,2022/9/12,18:00,35,18
��Ƃ�̍L��,�C�ݕ���,2022/9/12,19:00,21,12
��Ƃ�̍L��,�C�ݕ���,2022/9/12,20:00,17,8
��Ƃ�̍L��,�C�ݕ���,2022/9/12,21:00,28,11
��Ƃ�̍L��,�C�ݕ���,2022/9/12,22:00,10,2
��Ƃ�̍L��,�C�ݕ���,2022/9/12,23:00,5,8
��Ƃ�̍L��,�C�ݕ���,2022/9/13,0:00,1,2
��Ƃ�̍L��,�C�ݕ���,2022/9/13,1:00,1,2
��Ƃ�̍L��,�C�ݕ���,2022/9/13,2:00,0,0
��Ƃ�̍L��,�C�ݕ���,2022/9/13,3:00,1,0
��Ƃ�̍L��,�C�ݕ���,2022/9/13,4:00,2,1
��Ƃ�̍L��,�C�ݕ���,2022/9/13,5:00,3,1
��Ƃ�̍L��,�C�ݕ���,2022/9/13,6:00,11,6
��Ƃ�̍L��,�C�ݕ���,2022/9/13,7:00,17,7
��Ƃ�̍L��,�C�ݕ���,2022/9/13,8:00,18,19
��Ƃ�̍L��,�C�ݕ���,2022/9/13,9:00,50,32
��Ƃ�̍L��,�C�ݕ���,2022/9/13,10:00,62,34
��Ƃ�̍L��,�C�ݕ���,2022/9/13,11:00,92,43
��Ƃ�̍L��,�C�ݕ���,2022/9/13,12:00,79,67
��Ƃ�̍L��,�C�ݕ���,2022/9/13,13:00,71,47
��Ƃ�̍L��,�C�ݕ���,2022/9/13,14:00,81,51
��Ƃ�̍L��,�C�ݕ���,2022/9/13,15:00,62,35
��Ƃ�̍L��,�C�ݕ���,2022/9/13,16:00,80,30
��Ƃ�̍L��,�C�ݕ���,2022/9/13,17:00,49,36
��Ƃ�̍L��,�C�ݕ���,2022/9/13,18:00,48,23
��Ƃ�̍L��,�C�ݕ���,2022/9/13,19:00,33,15
��Ƃ�̍L��,�C�ݕ���,2022/9/13,20:00,17,14
��Ƃ�̍L��,�C�ݕ���,2022/9/13,21:00,15,6
��Ƃ�̍L��,�C�ݕ���,2022/9/13,22:00,12,4
��Ƃ�̍L��,�C�ݕ���,2022/9/13,23:00,3,2
��Ƃ�̍L��,�C�ݕ���,2022/9/14,0:00,1,1
��Ƃ�̍L��,�C�ݕ���,2022/9/14,1:00,1,0
��Ƃ�̍L��,�C�ݕ���,2022/9/14,2:00,1,0
��Ƃ�̍L��,�C�ݕ���,2022/9/14,3:00,0,1
��Ƃ�̍L��,�C�ݕ���,2022/9/14,4:00,2,3
��Ƃ�̍L��,�C�ݕ���,2022/9/14,5:00,6,2
��Ƃ�̍L��,�C�ݕ���,2022/9/14,6:00,6,8
��Ƃ�̍L��,�C�ݕ���,2022/9/14,7:00,16,13
��Ƃ�̍L��,�C�ݕ���,2022/9/14,8:00,20,18
��Ƃ�̍L��,�C�ݕ���,2022/9/14,9:00,38,23
��Ƃ�̍L��,�C�ݕ���,2022/9/14,10:00,37,41
��Ƃ�̍L��,�C�ݕ���,2022/9/14,11:00,105,33
��Ƃ�̍L��,�C�ݕ���,2022/9/14,12:00,117,49
��Ƃ�̍L��,�C�ݕ���,2022/9/14,13:00,87,55
��Ƃ�̍L��,�C�ݕ���,2022/9/14,14:00,68,32
��Ƃ�̍L��,�C�ݕ���,2022/9/14,15:00,75,36
��Ƃ�̍L��,�C�ݕ���,2022/9/14,16:00,106,46
��Ƃ�̍L��,�C�ݕ���,2022/9/14,17:00,53,33
��Ƃ�̍L��,�C�ݕ���,2022/9/14,18:00,35,20
��Ƃ�̍L��,�C�ݕ���,2022/9/14,19:00,24,15
��Ƃ�̍L��,�C�ݕ���,2022/9/14,20:00,15,13
��Ƃ�̍L��,�C�ݕ���,2022/9/14,21:00,8,9
��Ƃ�̍L��,�C�ݕ���,2022/9/14,22:00,10,4
��Ƃ�̍L��,�C�ݕ���,2022/9/14,23:00,2,0
��Ƃ�̍L��,�C�ݕ���,2022/9/15,0:00,2,1
��Ƃ�̍L��,�C�ݕ���,2022/9/15,1:00,0,0
��Ƃ�̍L��,�C�ݕ���,2022/9/15,2:00,0,0
��Ƃ�̍L��,�C�ݕ���,2022/9/15,3:00,2,2
��Ƃ�̍L��,�C�ݕ���,2022/9/15,4:00,0,0
��Ƃ�̍L��,�C�ݕ���,2022/9/15,5:00,6,4
��Ƃ�̍L��,�C�ݕ���,2022/9/15,6:00,7,3
��Ƃ�̍L��,�C�ݕ���,2022/9/15,7:00,15,11
��Ƃ�̍L��,�C�ݕ���,2022/9/15,8:00,24,22
��Ƃ�̍L��,�C�ݕ���,2022/9/15,9:00,34,34
��Ƃ�̍L��,�C�ݕ���,2022/9/15,10:00,66,34
��Ƃ�̍L��,�C�ݕ���,2022/9/15,11:00,72,39
��Ƃ�̍L��,�C�ݕ���,2022/9/15,12:00,95,35
��Ƃ�̍L��,�C�ݕ���,2022/9/15,13:00,56,37
��Ƃ�̍L��,�C�ݕ���,2022/9/15,14:00,70,36
��Ƃ�̍L��,�C�ݕ���,2022/9/15,15:00,64,45
��Ƃ�̍L��,�C�ݕ���,2022/9/15,16:00,75,27
��Ƃ�̍L��,�C�ݕ���,2022/9/15,17:00,51,35
��Ƃ�̍L��,�C�ݕ���,2022/9/15,18:00,49,26
��Ƃ�̍L��,�C�ݕ���,2022/9/15,19:00,23,18
��Ƃ�̍L��,�C�ݕ���,2022/9/15,20:00,19,11
��Ƃ�̍L��,�C�ݕ���,2022/9/15,21:00,15,12
��Ƃ�̍L��,�C�ݕ���,2022/9/15,22:00,16,3
��Ƃ�̍L��,�C�ݕ���,2022/9/15,23:00,2,2
��Ƃ�̍L��,�C�ݕ���,2022/9/16,0:00,3,2
��Ƃ�̍L��,�C�ݕ���,2022/9/16,1:00,0,1
��Ƃ�̍L��,�C�ݕ���,2022/9/16,2:00,0,0
��Ƃ�̍L��,�C�ݕ���,2022/9/16,3:00,2,0
��Ƃ�̍L��,�C�ݕ���,2022/9/16,4:00,1,2
��Ƃ�̍L��,�C�ݕ���,2022/9/16,5:00,4,1
��Ƃ�̍L��,�C�ݕ���,2022/9/16,6:00,10,7
��Ƃ�̍L��,�C�ݕ���,2022/9/16,7:00,15,12
��Ƃ�̍L��,�C�ݕ���,2022/9/16,8:00,38,24
��Ƃ�̍L��,�C�ݕ���,2022/9/16,9:00,48,27
��Ƃ�̍L��,�C�ݕ���,2022/9/16,10:00,40,27
��Ƃ�̍L��,�C�ݕ���,2022/9/16,11:00,113,48
��Ƃ�̍L��,�C�ݕ���,2022/9/16,12:00,97,45
��Ƃ�̍L��,�C�ݕ���,2022/9/16,13:00,78,58
��Ƃ�̍L��,�C�ݕ���,2022/9/16,14:00,102,51
��Ƃ�̍L��,�C�ݕ���,2022/9/16,15:00,74,51
��Ƃ�̍L��,�C�ݕ���,2022/9/16,16:00,74,52
��Ƃ�̍L��,�C�ݕ���,2022/9/16,17:00,94,34
��Ƃ�̍L��,�C�ݕ���,2022/9/16,18:00,51,37
��Ƃ�̍L��,�C�ݕ���,2022/9/16,19:00,37,25
��Ƃ�̍L��,�C�ݕ���,2022/9/16,20:00,28,12
��Ƃ�̍L��,�C�ݕ���,2022/9/16,21:00,36,16
��Ƃ�̍L��,�C�ݕ���,2022/9/16,22:00,11,4
��Ƃ�̍L��,�C�ݕ���,2022/9/16,23:00,5,3
��Ƃ�̍L��,�C�ݕ���,2022/9/17,0:00,4,1
��Ƃ�̍L��,�C�ݕ���,2022/9/17,1:00,2,0
��Ƃ�̍L��,�C�ݕ���,2022/9/17,2:00,0,0
��Ƃ�̍L��,�C�ݕ���,2022/9/17,3:00,1,0
��Ƃ�̍L��,�C�ݕ���,2022/9/17,4:00,2,2
��Ƃ�̍L��,�C�ݕ���,2022/9/17,5:00,2,1
��Ƃ�̍L��,�C�ݕ���,2022/9/17,6:00,5,3
��Ƃ�̍L��,�C�ݕ���,2022/9/17,7:00,10,9
��Ƃ�̍L��,�C�ݕ���,2022/9/17,8:00,22,17
��Ƃ�̍L��,�C�ݕ���,2022/9/17,9:00,38,30
��Ƃ�̍L��,�C�ݕ���,2022/9/17,10:00,77,37
��Ƃ�̍L��,�C�ݕ���,2022/9/17,11:00,139,78
��Ƃ�̍L��,�C�ݕ���,2022/9/17,12:00,195,89
��Ƃ�̍L��,�C�ݕ���,2022/9/17,13:00,184,107
��Ƃ�̍L��,�C�ݕ���,2022/9/17,14:00,151,75
��Ƃ�̍L��,�C�ݕ���,2022/9/17,15:00,141,80
��Ƃ�̍L��,�C�ݕ���,2022/9/17,16:00,127,85
��Ƃ�̍L��,�C�ݕ���,2022/9/17,17:00,66,64
��Ƃ�̍L��,�C�ݕ���,2022/9/17,18:00,39,57
��Ƃ�̍L��,�C�ݕ���,2022/9/17,19:00,29,16
��Ƃ�̍L��,�C�ݕ���,2022/9/17,20:00,18,11
��Ƃ�̍L��,�C�ݕ���,2022/9/17,21:00,31,12
��Ƃ�̍L��,�C�ݕ���,2022/9/17,22:00,15,7
��Ƃ�̍L��,�C�ݕ���,2022/9/17,23:00,5,1
��Ƃ�̍L��,�C�ݕ���,2022/9/18,0:00,2,1
��Ƃ�̍L��,�C�ݕ���,2022/9/18,1:00,2,2
��Ƃ�̍L��,�C�ݕ���,2022/9/18,2:00,1,0
��Ƃ�̍L��,�C�ݕ���,2022/9/18,3:00,2,1
��Ƃ�̍L��,�C�ݕ���,2022/9/18,4:00,3,0
��Ƃ�̍L��,�C�ݕ���,2022/9/18,5:00,2,4
��Ƃ�̍L��,�C�ݕ���,2022/9/18,6:00,11,5
��Ƃ�̍L��,�C�ݕ���,2022/9/18,7:00,9,8
��Ƃ�̍L��,�C�ݕ���,2022/9/18,8:00,8,5
��Ƃ�̍L��,�C�ݕ���,2022/9/18,9:00,24,16
��Ƃ�̍L��,�C�ݕ���,2022/9/18,10:00,71,49
��Ƃ�̍L��,�C�ݕ���,2022/9/18,11:00,83,80
��Ƃ�̍L��,�C�ݕ���,2022/9/18,12:00,111,101
��Ƃ�̍L��,�C�ݕ���,2022/9/18,13:00,122,87
��Ƃ�̍L��,�C�ݕ���,2022/9/18,14:00,102,50
��Ƃ�̍L��,�C�ݕ���,2022/9/18,15:00,60,49
��Ƃ�̍L��,�C�ݕ���,2022/9/18,16:00,41,26
��Ƃ�̍L��,�C�ݕ���,2022/9/18,17:00,36,29
��Ƃ�̍L��,�C�ݕ���,2022/9/18,18:00,20,19
��Ƃ�̍L��,�C�ݕ���,2022/9/18,19:00,5,4
��Ƃ�̍L��,�C�ݕ���,2022/9/18,20:00,17,5
��Ƃ�̍L��,�C�ݕ���,2022/9/18,21:00,3,4
��Ƃ�̍L��,�C�ݕ���,2022/9/18,22:00,8,4
��Ƃ�̍L��,�C�ݕ���,2022/9/18,23:00,2,1
��Ƃ�̍L��,�C�ݕ���,2022/9/19,0:00,0,2
��Ƃ�̍L��,�C�ݕ���,2022/9/19,1:00,1,0
��Ƃ�̍L��,�C�ݕ���,2022/9/19,2:00,1,1
��Ƃ�̍L��,�C�ݕ���,2022/9/19,3:00,0,0
��Ƃ�̍L��,�C�ݕ���,2022/9/19,4:00,0,0
��Ƃ�̍L��,�C�ݕ���,2022/9/19,5:00,2,2
��Ƃ�̍L��,�C�ݕ���,2022/9/19,6:00,1,2
��Ƃ�̍L��,�C�ݕ���,2022/9/19,7:00,2,2
��Ƃ�̍L��,�C�ݕ���,2022/9/19,8:00,3,8
��Ƃ�̍L��,�C�ݕ���,2022/9/19,9:00,10,13
��Ƃ�̍L��,�C�ݕ���,2022/9/19,10:00,21,15
��Ƃ�̍L��,�C�ݕ���,2022/9/19,11:00,10,7
��Ƃ�̍L��,�C�ݕ���,2022/9/19,12:00,24,17
��Ƃ�̍L��,�C�ݕ���,2022/9/19,13:00,16,14
��Ƃ�̍L��,�C�ݕ���,2022/9/19,14:00,9,9
��Ƃ�̍L��,�C�ݕ���,2022/9/19,15:00,6,3
��Ƃ�̍L��,�C�ݕ���,2022/9/19,16:00,8,15
��Ƃ�̍L��,�C�ݕ���,2022/9/19,17:00,22,10
��Ƃ�̍L��,�C�ݕ���,2022/9/19,18:00,13,4
��Ƃ�̍L��,�C�ݕ���,2022/9/19,19:00,5,4
��Ƃ�̍L��,�C�ݕ���,2022/9/19,20:00,6,3
��Ƃ�̍L��,�C�ݕ���,2022/9/19,21:00,3,1
��Ƃ�̍L��,�C�ݕ���,2022/9/19,22:00,5,3
��Ƃ�̍L��,�C�ݕ���,2022/9/19,23:00,1,0
��Ƃ�̍L��,�C�ݕ���,2022/9/20,0:00,2,1
��Ƃ�̍L��,�C�ݕ���,2022/9/20,1:00,0,0
��Ƃ�̍L��,�C�ݕ���,2022/9/20,2:00,1,1
��Ƃ�̍L��,�C�ݕ���,2022/9/20,3:00,1,0
��Ƃ�̍L��,�C�ݕ���,2022/9/20,4:00,2,3
��Ƃ�̍L��,�C�ݕ���,2022/9/20,5:00,3,4
��Ƃ�̍L��,�C�ݕ���,2022/9/20,6:00,13,8
��Ƃ�̍L��,�C�ݕ���,2022/9/20,7:00,25,10
��Ƃ�̍L��,�C�ݕ���,2022/9/20,8:00,37,28
��Ƃ�̍L��,�C�ݕ���,2022/9/20,9:00,52,31
��Ƃ�̍L��,�C�ݕ���,2022/9/20,10:00,82,50
��Ƃ�̍L��,�C�ݕ���,2022/9/20,11:00,81,55
��Ƃ�̍L��,�C�ݕ���,2022/9/20,12:00,78,52
��Ƃ�̍L��,�C�ݕ���,2022/9/20,13:00,98,59
��Ƃ�̍L��,�C�ݕ���,2022/9/20,14:00,67,54
��Ƃ�̍L��,�C�ݕ���,2022/9/20,15:00,88,42
��Ƃ�̍L��,�C�ݕ���,2022/9/20,16:00,73,33
��Ƃ�̍L��,�C�ݕ���,2022/9/20,17:00,77,32
��Ƃ�̍L��,�C�ݕ���,2022/9/20,18:00,62,43
��Ƃ�̍L��,�C�ݕ���,2022/9/20,19:00,52,19
��Ƃ�̍L��,�C�ݕ���,2022/9/20,20:00,27,25
��Ƃ�̍L��,�C�ݕ���,2022/9/20,21:00,24,10
��Ƃ�̍L��,�C�ݕ���,2022/9/20,22:00,20,17
��Ƃ�̍L��,�C�ݕ���,2022/9/20,23:00,1,4
��Ƃ�̍L��,�C�ݕ���,2022/9/21,0:00,6,1
��Ƃ�̍L��,�C�ݕ���,2022/9/21,1:00,0,4
��Ƃ�̍L��,�C�ݕ���,2022/9/21,2:00,1,0
��Ƃ�̍L��,�C�ݕ���,2022/9/21,3:00,0,0
��Ƃ�̍L��,�C�ݕ���,2022/9/21,4:00,4,1
��Ƃ�̍L��,�C�ݕ���,2022/9/21,5:00,5,5
��Ƃ�̍L��,�C�ݕ���,2022/9/21,6:00,10,13
��Ƃ�̍L��,�C�ݕ���,2022/9/21,7:00,10,13
��Ƃ�̍L��,�C�ݕ���,2022/9/21,8:00,35,41
��Ƃ�̍L��,�C�ݕ���,2022/9/21,9:00,49,28
��Ƃ�̍L��,�C�ݕ���,2022/9/21,10:00,37,28
��Ƃ�̍L��,�C�ݕ���,2022/9/21,11:00,73,47
��Ƃ�̍L��,�C�ݕ���,2022/9/21,12:00,110,64
��Ƃ�̍L��,�C�ݕ���,2022/9/21,13:00,74,75
��Ƃ�̍L��,�C�ݕ���,2022/9/21,14:00,83,48
��Ƃ�̍L��,�C�ݕ���,2022/9/21,15:00,95,44
��Ƃ�̍L��,�C�ݕ���,2022/9/21,16:00,67,60
��Ƃ�̍L��,�C�ݕ���,2022/9/21,17:00,83,34
��Ƃ�̍L��,�C�ݕ���,2022/9/21,18:00,55,40
��Ƃ�̍L��,�C�ݕ���,2022/9/21,19:00,36,20
��Ƃ�̍L��,�C�ݕ���,2022/9/21,20:00,24,12
��Ƃ�̍L��,�C�ݕ���,2022/9/21,21:00,16,10
��Ƃ�̍L��,�C�ݕ���,2022/9/21,22:00,9,5
��Ƃ�̍L��,�C�ݕ���,2022/9/21,23:00,4,5
��Ƃ�̍L��,�C�ݕ���,2022/9/22,0:00,4,3
��Ƃ�̍L��,�C�ݕ���,2022/9/22,1:00,1,3
��Ƃ�̍L��,�C�ݕ���,2022/9/22,2:00,2,3
��Ƃ�̍L��,�C�ݕ���,2022/9/22,3:00,1,0
��Ƃ�̍L��,�C�ݕ���,2022/9/22,4:00,2,1
��Ƃ�̍L��,�C�ݕ���,2022/9/22,5:00,2,4
��Ƃ�̍L��,�C�ݕ���,2022/9/22,6:00,8,7
��Ƃ�̍L��,�C�ݕ���,2022/9/22,7:00,32,36
��Ƃ�̍L��,�C�ݕ���,2022/9/22,8:00,27,22
��Ƃ�̍L��,�C�ݕ���,2022/9/22,9:00,62,30
��Ƃ�̍L��,�C�ݕ���,2022/9/22,10:00,65,35
��Ƃ�̍L��,�C�ݕ���,2022/9/22,11:00,63,55
��Ƃ�̍L��,�C�ݕ���,2022/9/22,12:00,85,53
��Ƃ�̍L��,�C�ݕ���,2022/9/22,13:00,199,139
��Ƃ�̍L��,�C�ݕ���,2022/9/22,14:00,331,176
��Ƃ�̍L��,�C�ݕ���,2022/9/22,15:00,305,152
��Ƃ�̍L��,�C�ݕ���,2022/9/22,16:00,91,35
��Ƃ�̍L��,�C�ݕ���,2022/9/22,17:00,77,35
��Ƃ�̍L��,�C�ݕ���,2022/9/22,18:00,45,31
��Ƃ�̍L��,�C�ݕ���,2022/9/22,19:00,39,18
��Ƃ�̍L��,�C�ݕ���,2022/9/22,20:00,26,10
��Ƃ�̍L��,�C�ݕ���,2022/9/22,21:00,25,15
��Ƃ�̍L��,�C�ݕ���,2022/9/22,22:00,9,10
��Ƃ�̍L��,�C�ݕ���,2022/9/22,23:00,8,4
��Ƃ�̍L��,�C�ݕ���,2022/9/23,0:00,2,1
��Ƃ�̍L��,�C�ݕ���,2022/9/23,1:00,1,0
��Ƃ�̍L��,�C�ݕ���,2022/9/23,2:00,3,2
��Ƃ�̍L��,�C�ݕ���,2022/9/23,3:00,2,0
��Ƃ�̍L��,�C�ݕ���,2022/9/23,4:00,0,0
��Ƃ�̍L��,�C�ݕ���,2022/9/23,5:00,3,1
��Ƃ�̍L��,�C�ݕ���,2022/9/23,6:00,6,0
��Ƃ�̍L��,�C�ݕ���,2022/9/23,7:00,10,10
��Ƃ�̍L��,�C�ݕ���,2022/9/23,8:00,21,15
��Ƃ�̍L��,�C�ݕ���,2022/9/23,9:00,45,29
��Ƃ�̍L��,�C�ݕ���,2022/9/23,10:00,81,35
��Ƃ�̍L��,�C�ݕ���,2022/9/23,11:00,140,93
��Ƃ�̍L��,�C�ݕ���,2022/9/23,12:00,195,111
��Ƃ�̍L��,�C�ݕ���,2022/9/23,13:00,251,137
��Ƃ�̍L��,�C�ݕ���,2022/9/23,14:00,212,124
��Ƃ�̍L��,�C�ݕ���,2022/9/23,15:00,161,95
��Ƃ�̍L��,�C�ݕ���,2022/9/23,16:00,119,91
��Ƃ�̍L��,�C�ݕ���,2022/9/23,17:00,113,102
��Ƃ�̍L��,�C�ݕ���,2022/9/23,18:00,64,50
��Ƃ�̍L��,�C�ݕ���,2022/9/23,19:00,38,21
��Ƃ�̍L��,�C�ݕ���,2022/9/23,20:00,30,12
��Ƃ�̍L��,�C�ݕ���,2022/9/23,21:00,15,8
��Ƃ�̍L��,�C�ݕ���,2022/9/23,22:00,12,2
��Ƃ�̍L��,�C�ݕ���,2022/9/23,23:00,9,1
��Ƃ�̍L��,�C�ݕ���,2022/9/24,0:00,4,3
��Ƃ�̍L��,�C�ݕ���,2022/9/24,1:00,2,0
��Ƃ�̍L��,�C�ݕ���,2022/9/24,2:00,1,0
��Ƃ�̍L��,�C�ݕ���,2022/9/24,3:00,2,0
��Ƃ�̍L��,�C�ݕ���,2022/9/24,4:00,3,5
��Ƃ�̍L��,�C�ݕ���,2022/9/24,5:00,5,6
��Ƃ�̍L��,�C�ݕ���,2022/9/24,6:00,10,4
��Ƃ�̍L��,�C�ݕ���,2022/9/24,7:00,12,8
��Ƃ�̍L��,�C�ݕ���,2022/9/24,8:00,26,26
��Ƃ�̍L��,�C�ݕ���,2022/9/24,9:00,80,31
��Ƃ�̍L��,�C�ݕ���,2022/9/24,10:00,193,62
��Ƃ�̍L��,�C�ݕ���,2022/9/24,11:00,204,99
��Ƃ�̍L��,�C�ݕ���,2022/9/24,12:00,248,140
��Ƃ�̍L��,�C�ݕ���,2022/9/24,13:00,244,132
��Ƃ�̍L��,�C�ݕ���,2022/9/24,14:00,226,141
��Ƃ�̍L��,�C�ݕ���,2022/9/24,15:00,175,114
��Ƃ�̍L��,�C�ݕ���,2022/9/24,16:00,242,162
��Ƃ�̍L��,�C�ݕ���,2022/9/24,17:00,80,118
��Ƃ�̍L��,�C�ݕ���,2022/9/24,18:00,88,49
��Ƃ�̍L��,�C�ݕ���,2022/9/24,19:00,43,32
��Ƃ�̍L��,�C�ݕ���,2022/9/24,20:00,42,19
��Ƃ�̍L��,�C�ݕ���,2022/9/24,21:00,25,17
��Ƃ�̍L��,�C�ݕ���,2022/9/24,22:00,23,9
��Ƃ�̍L��,�C�ݕ���,2022/9/24,23:00,19,3
��Ƃ�̍L��,�C�ݕ���,2022/9/25,0:00,8,4
��Ƃ�̍L��,�C�ݕ���,2022/9/25,1:00,6,2
��Ƃ�̍L��,�C�ݕ���,2022/9/25,2:00,1,3
��Ƃ�̍L��,�C�ݕ���,2022/9/25,3:00,3,0
��Ƃ�̍L��,�C�ݕ���,2022/9/25,4:00,1,2
��Ƃ�̍L��,�C�ݕ���,2022/9/25,5:00,4,6
��Ƃ�̍L��,�C�ݕ���,2022/9/25,6:00,11,9
��Ƃ�̍L��,�C�ݕ���,2022/9/25,7:00,12,7
��Ƃ�̍L��,�C�ݕ���,2022/9/25,8:00,26,22
��Ƃ�̍L��,�C�ݕ���,2022/9/25,9:00,55,25
��Ƃ�̍L��,�C�ݕ���,2022/9/25,10:00,103,86
��Ƃ�̍L��,�C�ݕ���,2022/9/25,11:00,186,127
��Ƃ�̍L��,�C�ݕ���,2022/9/25,12:00,237,131
��Ƃ�̍L��,�C�ݕ���,2022/9/25,13:00,202,124
��Ƃ�̍L��,�C�ݕ���,2022/9/25,14:00,176,121
��Ƃ�̍L��,�C�ݕ���,2022/9/25,15:00,167,120
��Ƃ�̍L��,�C�ݕ���,2022/9/25,16:00,119,82
��Ƃ�̍L��,�C�ݕ���,2022/9/25,17:00,111,70
��Ƃ�̍L��,�C�ݕ���,2022/9/25,18:00,36,23
��Ƃ�̍L��,�C�ݕ���,2022/9/25,19:00,18,14
��Ƃ�̍L��,�C�ݕ���,2022/9/25,20:00,21,13
��Ƃ�̍L��,�C�ݕ���,2022/9/25,21:00,12,10
��Ƃ�̍L��,�C�ݕ���,2022/9/25,22:00,10,2
��Ƃ�̍L��,�C�ݕ���,2022/9/25,23:00,3,4
��Ƃ�̍L��,�C�ݕ���,2022/9/26,0:00,3,0
��Ƃ�̍L��,�C�ݕ���,2022/9/26,1:00,1,3
��Ƃ�̍L��,�C�ݕ���,2022/9/26,2:00,0,0
��Ƃ�̍L��,�C�ݕ���,2022/9/26,3:00,0,0
��Ƃ�̍L��,�C�ݕ���,2022/9/26,4:00,5,2
��Ƃ�̍L��,�C�ݕ���,2022/9/26,5:00,6,4
��Ƃ�̍L��,�C�ݕ���,2022/9/26,6:00,8,3
��Ƃ�̍L��,�C�ݕ���,2022/9/26,7:00,15,13
��Ƃ�̍L��,�C�ݕ���,2022/9/26,8:00,36,30
��Ƃ�̍L��,�C�ݕ���,2022/9/26,9:00,209,148
��Ƃ�̍L��,�C�ݕ���,2022/9/26,10:00,92,43
��Ƃ�̍L��,�C�ݕ���,2022/9/26,11:00,165,84
��Ƃ�̍L��,�C�ݕ���,2022/9/26,12:00,132,74
��Ƃ�̍L��,�C�ݕ���,2022/9/26,13:00,148,87
��Ƃ�̍L��,�C�ݕ���,2022/9/26,14:00,230,91
��Ƃ�̍L��,�C�ݕ���,2022/9/26,15:00,204,123
��Ƃ�̍L��,�C�ݕ���,2022/9/26,16:00,93,70
��Ƃ�̍L��,�C�ݕ���,2022/9/26,17:00,51,47
��Ƃ�̍L��,�C�ݕ���,2022/9/26,18:00,50,30
��Ƃ�̍L��,�C�ݕ���,2022/9/26,19:00,26,9
��Ƃ�̍L��,�C�ݕ���,2022/9/26,20:00,16,15
��Ƃ�̍L��,�C�ݕ���,2022/9/26,21:00,90,44
��Ƃ�̍L��,�C�ݕ���,2022/9/26,22:00,0,1
��Ƃ�̍L��,�C�ݕ���,2022/9/26,23:00,0,1
��Ƃ�̍L��,�C�ݕ���,2022/9/27,0:00,1,0
��Ƃ�̍L��,�C�ݕ���,2022/9/27,1:00,48,17